Hillsdale, MI

9:14 PM EST on February 09, 2016 (GMT -0500)
Hillsdale Municipal

Weather History for KJYM - October, 2013

Change the Weather History Date:

Friday, October 18, 2013

  Actual Average Record
Temperature  
Mean Temperature 51 °F -  
Max Temperature 62 °F 57 °F 82 °F (1950)
Min Temperature 40 °F 37 °F 17 °F (1976)
Degree Days  
Heating Degree Days 14    
Growing Degree Days 1 (Base 50)    
Moisture  
Dew Point 42 °F    
Average Humidity 77    
Maximum Humidity 99    
Minimum Humidity 42    
Precipitation  
Precipitation 0.00 in - - ()
Sea Level Pressure  
Sea Level Pressure 29.88 in    
Wind  
Wind Speed 6 mph (SW)    
Max Wind Speed 14 mph    
Max Gust Speed 21 mph    
Visibility 8 miles    
Events Rain    
Averages and records for this station are not official NWS values.
T = Trace of Precipitation, MM = Missing Value Source: NWS Daily Summary

Daily Weather History Graph

Daily Weather History Graph

Search for Another Location

Airport or City:

Trip Planner

Search our weather history database for the weather conditions in past years. The results will help you decide how hot, cold, wet, or windy it might be!

Date:

Astronomy

Oct. 18, 2013 Rise Set
Actual Time 7:54 AM EDT 6:51 PM EDT
Civil Twilight 7:26 AM EDT 7:19 PM EDT
Nautical Twilight 6:53 AM EDT 7:52 PM EDT
Astronomical Twilight 6:21 AM EDT 8:24 PM EDT
Moon 6:40 PM EDT (10/18) 7:29 AM EDT (10/18)
Length of Visible Light 11h 53m
Length of Day
10h 57m
Full, 100% of the Moon is Illuminated
Oct 18
Full
Oct 18
Full
Oct 26
Last Quarter
Nov 3
New
Nov 10
First Quarter

Hourly Weather History & Observations

Time (EDT) Temp. Windchill Dew Point Humidity Pressure Visibility Wind Dir Wind Speed Gust Speed Precip Events Conditions
12:14 AM 47.3 °F - 46.9 °F 99% 29.87 in 5.0 mi WSW 5.8 mph - N/A Rain Rain
12:35 AM 46.9 °F - 46.4 °F 98% 29.86 in 7.0 mi WSW 3.5 mph - N/A   Overcast
12:54 AM 46.0 °F 44.8 °F 45.5 °F 98% 29.87 in 7.0 mi WSW 3.5 mph - N/A   Scattered Clouds
1:14 AM 45.7 °F 42.7 °F 45.0 °F 97% 29.87 in 7.0 mi WSW 5.8 mph - N/A   Clear
1:34 AM 45.1 °F 42.0 °F 44.4 °F 97% 29.87 in 7.0 mi WSW 5.8 mph - N/A   Clear
1:54 AM 45.0 °F 41.2 °F 43.9 °F 96% 29.88 in 7.0 mi WSW 6.9 mph - N/A   Clear
2:15 AM 44.4 °F 42.0 °F 43.5 °F 97% 29.88 in 7.0 mi WSW 4.6 mph - N/A   Clear
2:34 AM 44.1 °F 41.5 °F 43.2 °F 97% 29.88 in 7.0 mi WSW 4.6 mph - N/A   Clear
2:54 AM 44.1 °F 41.5 °F 42.8 °F 95% 29.88 in 7.0 mi WSW 4.6 mph - N/A   Clear
3:15 AM 43.5 °F 41.9 °F 42.4 °F 96% 29.88 in 7.0 mi SW 3.5 mph - N/A   Clear
3:34 AM 43.2 °F 40.5 °F 42.3 °F 97% 29.88 in 7.0 mi SW 4.6 mph - N/A   Clear
3:55 AM 43.0 °F 40.3 °F 42.1 °F 97% 29.88 in 5.0 mi SW 4.6 mph - N/A   Clear
4:15 AM 42.3 °F 40.5 °F 41.7 °F 98% 29.88 in 5.0 mi SSW 3.5 mph - N/A   Clear
4:34 AM 41.7 °F 39.8 °F 41.4 °F 99% 29.88 in 4.0 mi SSW 3.5 mph - N/A   Clear
4:55 AM 41.7 °F 39.8 °F 41.4 °F 99% 29.88 in 5.0 mi SSW 3.5 mph - N/A   Clear
5:14 AM 41.4 °F - 40.8 °F 98% 29.88 in 5.0 mi Calm Calm - N/A   Clear
5:35 AM 41.2 °F 38.2 °F 40.6 °F 98% 29.88 in 5.0 mi SSW 4.6 mph - N/A   Clear
5:55 AM 41.2 °F 39.2 °F 40.6 °F 98% 29.88 in 5.0 mi SSW 3.5 mph - N/A   Clear
6:14 AM 40.6 °F 37.5 °F 40.3 °F 99% 29.88 in 5.0 mi South 4.6 mph - N/A   Clear
6:35 AM 40.6 °F 37.5 °F 40.3 °F 99% 29.88 in 5.0 mi SSW 4.6 mph - N/A   Clear
6:55 AM 40.5 °F 37.3 °F 40.1 °F 99% 29.88 in 5.0 mi SSW 4.6 mph - N/A   Clear
7:14 AM 40.5 °F 37.3 °F 40.1 °F 99% 29.88 in 5.0 mi SSW 4.6 mph - N/A   Clear
7:35 AM 40.6 °F 38.6 °F 40.3 °F 99% 29.88 in 7.0 mi SSW 3.5 mph - N/A   Clear
7:54 AM 40.5 °F 36.5 °F 39.9 °F 98% 29.89 in 4.0 mi SSW 5.8 mph - N/A   Clear
8:14 AM 40.6 °F 37.5 °F 40.3 °F 99% 29.89 in 4.0 mi SSW 4.6 mph - N/A   Clear
8:35 AM 41.2 °F 38.2 °F 40.6 °F 98% 29.89 in 4.0 mi SW 4.6 mph - N/A   Clear
8:54 AM 42.3 °F 39.4 °F 41.5 °F 97% 29.89 in 5.0 mi SSW 4.6 mph - N/A   Clear
9:15 AM 43.3 °F 39.2 °F 42.1 °F 95% 29.90 in 7.0 mi SSW 6.9 mph - N/A   Scattered Clouds
9:35 AM 45.3 °F 42.3 °F 43.3 °F 93% 29.90 in 7.0 mi SSW 5.8 mph - N/A   Mostly Cloudy
9:54 AM 46.2 °F 43.3 °F 43.5 °F 90% 29.90 in 10.0 mi SW 5.8 mph - N/A   Mostly Cloudy
10:15 AM 47.1 °F - 44.1 °F 89% 29.91 in 10.0 mi SSW 4.6 mph - N/A   Mostly Cloudy
10:34 AM 47.8 °F - 44.1 °F 87% 29.91 in 10.0 mi SSW 4.6 mph - N/A   Mostly Cloudy
10:55 AM 50.7 °F - 45.1 °F 81% 29.91 in 10.0 mi SSW 5.8 mph - N/A   Mostly Cloudy
11:15 AM 53.1 °F - 44.6 °F 73% 29.90 in 10.0 mi SW 5.8 mph - N/A   Scattered Clouds
11:35 AM 54.9 °F - 44.4 °F 68% 29.91 in 10.0 mi SW 8.1 mph - N/A   Clear
11:55 AM 56.1 °F - 43.3 °F 62% 29.90 in 10.0 mi SW 6.9 mph - N/A   Clear
12:14 PM 57.6 °F - 42.4 °F 57% 29.90 in 10.0 mi SW 6.9 mph - N/A   Clear
12:35 PM 59.0 °F - 40.8 °F 51% 29.90 in 10.0 mi West 10.4 mph - N/A   Clear
12:54 PM 59.5 °F - 41.0 °F 50% 29.89 in 10.0 mi WSW 6.9 mph - N/A   Clear
1:14 PM 60.4 °F - 41.0 °F 49% 29.89 in 10.0 mi WSW 4.6 mph - N/A   Clear
1:35 PM 61.2 °F - 39.2 °F 44% 29.88 in 10.0 mi SW 10.4 mph 18.4 mph N/A   Clear
1:54 PM 62.1 °F - 38.5 °F 42% 29.87 in 10.0 mi WSW 11.5 mph 16.1 mph N/A   Scattered Clouds
2:15 PM 62.1 °F - 38.7 °F 42% 29.87 in 10.0 mi WSW 6.9 mph 17.3 mph N/A   Scattered Clouds
2:35 PM 62.6 °F - 39.0 °F 42% 29.87 in 10.0 mi WSW 9.2 mph - N/A   Scattered Clouds
2:54 PM 60.3 °F - 38.5 °F 44% 29.87 in 10.0 mi West 10.4 mph 18.4 mph N/A   Scattered Clouds
3:15 PM 62.4 °F - 38.8 °F 42% 29.86 in 10.0 mi WSW 13.8 mph 18.4 mph N/A   Scattered Clouds
3:35 PM 59.9 °F - 37.9 °F 44% 29.87 in 10.0 mi West 12.7 mph 19.6 mph N/A   Scattered Clouds
3:54 PM 59.9 °F - 39.0 °F 46% 29.87 in 10.0 mi WSW 11.5 mph 19.6 mph N/A   Mostly Cloudy
4:15 PM 61.3 °F - 39.6 °F 45% 29.86 in 10.0 mi WSW 8.1 mph 18.4 mph N/A   Scattered Clouds
4:34 PM 59.2 °F - 39.6 °F 48% 29.87 in 10.0 mi WSW 8.1 mph 16.1 mph N/A   Scattered Clouds
4:55 PM 60.4 °F - 39.0 °F 45% 29.86 in 10.0 mi WSW 11.5 mph 16.1 mph N/A   Scattered Clouds
5:15 PM 59.0 °F - 39.4 °F 48% 29.86 in 10.0 mi WSW 9.2 mph - N/A   Scattered Clouds
5:34 PM 58.3 °F - 39.9 °F 50% 29.87 in 10.0 mi West 8.1 mph 16.1 mph N/A   Scattered Clouds
5:55 PM 57.6 °F - 40.3 °F 53% 29.87 in 10.0 mi West 6.9 mph - N/A   Scattered Clouds
6:15 PM 57.4 °F - 40.6 °F 54% 29.87 in 10.0 mi West 8.1 mph - N/A   Scattered Clouds
6:34 PM 55.9 °F - 41.0 °F 57% 29.88 in 10.0 mi West 5.8 mph - N/A   Scattered Clouds
6:55 PM 54.9 °F - 41.5 °F 61% 29.88 in 10.0 mi West 6.9 mph - N/A   Scattered Clouds
7:15 PM 54.1 °F - 43.5 °F 67% 29.89 in 10.0 mi West 5.8 mph - N/A   Mostly Cloudy
7:34 PM 53.4 °F - 44.8 °F 73% 29.90 in 10.0 mi WNW 11.5 mph 16.1 mph N/A   Mostly Cloudy
7:45 PM 52.2 °F - 45.9 °F 79% 29.91 in 10.0 mi WNW 11.5 mph 20.7 mph N/A   Mostly Cloudy
11:35 PM 42.8 °F 40.1 °F 41.0 °F 93% 29.93 in 7.0 mi WSW 4.6 mph - N/A   Clear